Location: Quesnel
(52.9830°N, 122.4830°W)
Time: 13:14:52
(UTC-07:00)

ISS - All Passes

Search period start: 30 July 2015 00:00
Search period end: 09 August 2015 00:00
Orbit: 402 x 403 km, 51.6° (Epoch: 30 July)

Date Brightness Start Highest point End Pass type
(mag) Time Alt. Az. Time Alt. Az. Time Alt. Az.
30 Jul - 00:54:58 10° WSW 00:58:12 60° S 01:01:27 10° E visible
30 Jul - 02:31:17 10° W 02:34:31 64° S 02:37:47 10° ESE visible
30 Jul - 04:07:49 10° W 04:10:39 27° SSW 04:13:29 10° SSE visible
30 Jul - 22:27:17 10° S 22:29:20 16° SE 22:31:26 10° ESE visible
31 Jul - 00:02:06 10° WSW 00:05:16 48° SSE 00:08:26 10° E visible
31 Jul - 01:38:16 10° W 01:41:32 70° S 01:44:48 10° E visible
31 Jul - 03:14:41 10° W 03:17:46 38° SSW 03:20:50 10° SE visible
31 Jul - 04:52:32 10° WSW 04:53:33 11° SW 04:54:29 10° SSW daylight
31 Jul - 21:36:14 10° SE 21:36:30 10° SE 21:36:54 10° SE daylight
31 Jul - 23:09:15 10° SW 23:12:16 36° SSE 23:15:19 10° E visible
01 Aug - 00:45:13 10° W 00:48:28 70° S 00:51:44 10° E visible
01 Aug - 02:21:35 10° W 02:24:45 50° SSW 02:27:56 10° ESE visible
01 Aug - 03:58:28 10° WSW 04:00:42 17° SW 04:02:54 10° S visible
01 Aug - 22:16:31 10° SSW 22:19:16 25° SSE 22:22:03 10° E visible
01 Aug - 23:52:07 10° WSW 23:55:21 63° S 23:58:36 10° E visible
02 Aug - 01:28:25 10° W 01:31:40 62° S 01:34:54 10° ESE visible
02 Aug - 03:05:00 10° W 03:07:45 25° SSW 03:10:28 10° SSE night (unlit)
02 Aug - 21:24:00 10° S 21:26:14 18° SE 21:28:32 10° E daylight
02 Aug - 22:59:01 10° WSW 23:02:11 51° SSE 23:05:23 10° E visible
03 Aug - 00:35:13 10° W 00:38:28 69° S 00:41:44 10° E visible
03 Aug - 02:11:39 10° W 02:14:40 35° SSW 02:17:40 10° SE visible
03 Aug - 20:32:06 10° SSE 20:33:13 11° SE 20:34:23 10° ESE daylight
03 Aug - 22:05:56 10° SW 22:09:00 38° SSE 22:12:04 10° E visible
03 Aug - 23:41:57 10° W 23:45:13 71° S 23:48:28 10° E visible
04 Aug - 01:18:19 10° W 01:21:28 47° SSW 01:24:37 10° ESE visible
04 Aug - 02:55:20 10° WSW 02:57:22 15° SW 02:59:20 10° S night (unlit)
04 Aug - 21:12:57 10° SSW 21:15:47 28° SSE 21:18:38 10° E daylight
04 Aug - 22:48:39 10° WSW 22:51:53 65° S 22:55:08 10° E visible
05 Aug - 00:24:57 10° W 00:28:11 59° SSW 00:31:24 10° ESE visible
05 Aug - 02:01:34 10° W 02:04:13 23° SSW 02:06:50 10° SSE visible
05 Aug - 20:20:09 10° SSW 20:22:33 19° SSE 20:24:59 10° E daylight
05 Aug - 21:55:19 10° WSW 21:58:31 54° SSE 22:01:43 10° E visible
05 Aug - 23:31:33 10° W 23:34:48 68° S 23:38:03 10° ESE visible
06 Aug - 01:07:59 10° W 01:10:57 32° SSW 01:13:54 10° SE visible
06 Aug - 19:27:49 10° S 19:29:18 13° SE 19:30:52 10° ESE daylight
06 Aug - 21:02:01 10° SW 21:05:07 41° SSE 21:08:13 10° E daylight
06 Aug - 22:38:05 10° W 22:41:20 71° S 22:44:35 10° E visible
07 Aug - 00:14:26 10° W 00:17:34 44° SSW 00:20:41 10° SE visible
07 Aug - 01:51:36 10° WSW 01:53:25 14° SW 01:55:09 10° S visible
07 Aug - 20:08:47 10° SW 20:11:41 30° SSE 20:14:36 10° E daylight
07 Aug - 21:44:34 10° WSW 21:47:48 67° S 21:51:03 10° E visible
07 Aug - 23:20:52 10° W 23:24:05 57° SSW 23:27:17 10° ESE visible
08 Aug - 00:57:32 10° W 01:00:04 21° SSW 01:02:35 10° SSE visible
08 Aug - 19:15:44 10° SSW 19:18:14 21° SSE 19:20:48 10° E daylight
08 Aug - 20:51:01 10° WSW 20:54:13 57° SSE 20:57:27 10° E daylight
08 Aug - 22:27:15 10° W 22:30:31 67° S 22:33:45 10° ESE visible
